Regional Weather Roundup
Issued by NWS

Home | Current Version | Previous Version | Graphics & Text | Print | Product List | Glossary On
Versions: 1 2 3 4 5 6 7 8 9 10 11 12 13 14 15 16 17 18 19 20 21 22 23 24 25 26 27 28 29 30 31 32 33 34 35 36 37 38 39 40 41 42 43 44 45 46 47 48 49 50
000
ASUS43 KFSD 061710
RWRSD

WEATHER ROUNDUP FOR SOUTH DAKOTA
NATIONAL WEATHER SERVICE SIOUX FALLS SD
1100 AM CST FRI MAR 06 2015

NOTE: "FAIR" INDICATES FEW OR NO CLOUDS BELOW 12,000 FEET WITH NO
SIGNIFICANT WEATHER AND/OR OBSTRUCTIONS TO VISIBILITY.


SDZ001>005-009-010-012>017-061800-
NORTHWEST AND NORTH CENTRAL SOUTH DAKOTA

CITY           SKY/WX    TMP DP  RH WIND       PRES   REMARKS
BUFFALO          N/A     48  18  30 W20       30.03S
FAITH            N/A     44  17  33 W10       30.11S
MOBRIDGE       PTSUNNY   34  18  52 W3        30.11R
$$

SDZ012>016-024>037-041>051-057-063-072>074-061800-
SOUTHWEST AND SOUTH CENTRAL SOUTH DAKOTA

CITY           SKY/WX    TMP DP  RH WIND       PRES   REMARKS
RAPID CTY ARPT MOSUNNY   50  20  30 VRB3      30.13F
PIERRE         MOSUNNY   39  20  46 W7        30.14S
CUSTER         MOSUNNY   42  12  29 W15G23    30.14S
ELLSWORTH AFB  CLOUDY    52  20  28 NW15      30.13S
PHILIP         PTSUNNY   50  18  28 W14       30.14F
PINE RIDGE     MOSUNNY   44  24  45 SW13      30.19S
SPEARFISH      FAIR      45  18  33 W15G26    30.15R
WINNER         FAIR      47  21  35 W10       30.16S
$$

SDZ004>011-016>023-039-040-061800-
NORTHEAST SOUTH DAKOTA

CITY           SKY/WX    TMP DP  RH WIND       PRES   REMARKS
ABERDEEN       SUNNY     32  17  54 NW10      30.15R WCI  24
WATERTOWN      SUNNY     28  17  63 N12       30.09S WCI  18
$$

SDZ017-020-022-023-036>040-048>070-061800-
SOUTHEAST SOUTH DAKOTA

CITY           SKY/WX    TMP DP  RH WIND       PRES   REMARKS
SIOUX FALLS    MOSUNNY   40  21  46 W13       30.11S
HURON          SUNNY     33  19  56 N9        30.14S WCI  25
CHAMBERLAIN    SUNNY     39  21  48 W7        30.15R
MITCHELL       SUNNY     42  20  41 N12       30.14R
YANKTON        SUNNY     48  21  34 W13G18    30.14S
$$

ABBREVIATIONS USED IN REMARKS
   TC - TEMPERATURE IN CELSIUS
  WCI - WIND CHILL INDEX
   HX - HEAT INDEX
  VSB - VISIBILITY




USA.gov is the U.S. government's official web portal to all federal, state and local government web resources and services.